Regional Weather Roundup
Issued by NWS San Diego, CA

Current Version |  Previous Version |  Text Only |  Print | Product List |  Glossary On
Versions: 1 2 3 4 5 6 7 8 9 10 11 12 13 14 15 16 17 18 19 20 21 22 23 24 25 26 27 28
142
ASUS46 KSGX 221110
RWRSGX

SAN DIEGO HOURLY WEATHER ROUNDUP
NATIONAL WEATHER SERVICE SAN DIEGO CA
400 AM PDT MON JUL 22 2024

NOTE: "FAIR" INDICATES FEW OR NO CLOUDS BELOW 12,000 FEET WITH NO
SIGNIFICANT WEATHER AND/OR OBSTRUCTIONS TO VISIBILITY.

CAZ042-043-060-061-PZZ750-775-221200-

GREATER SAN DIEGO AREA

CITY           SKY/WX    TMP DP  RH WIND       PRES   REMARKS
SAN DIEGO AP   PTCLDY    68  63  84 CALM      29.87S
BROWN FIELD    CLEAR     65  61  87 CALM      29.86F
MIRAMAR MCAS   CLEAR     64  60  87 W3        29.85F
MONTGOMERY FLD CLEAR     67  61  81 CALM      29.86S
GILLESPIE FLD  CLEAR     68  61  77 NW3       29.84S
LEMON GROVE      N/A     65  62  91 CALM      29.83S

$$

NORTH SAN DIEGO COUNTY

CITY           SKY/WX    TMP DP  RH WIND       PRES   REMARKS
OCEANSIDE AP   CLEAR     63  60  90 CALM      29.84F
OCEANSIDE HBR    N/A     65  62  90 E1        29.90F
VISTA            N/A     64  62  91 CALM      29.83F
CARLSBAD       CLEAR     66  62  87 CALM      29.84F
ENCINITAS        N/A     64  63  95 CALM        N/A
LA JOLLA SCRIP   N/A     65  58  76 CALM      29.84F
FALLBROOK      CLEAR     64  63  94 CALM      29.87S
ESCONDIDO        N/A     69  63  82 CALM      29.83S
RANCHO BERNARD   N/A     66  62  87 CALM      29.83S
POWAY            N/A     65  61  86 CALM      29.86R

$$

EAST SAN DIEGO COUNTY

CITY           SKY/WX    TMP DP  RH WIND       PRES   REMARKS
RAMONA         CLEAR     63  59  87 CALM      29.88F
SANTEE           N/A     65  61  85 CALM      29.80F
LA MESA          N/A     65  61  87 CALM      29.77F
EL CAJON         N/A     67  63  87 CALM      29.73S
ALPINE           N/A     70  59  68 CALM      29.98S
DESCANSO N       N/A     70  54  57 N5        29.80F

$$

ORANGE COUNTY AND THE LOS ANGELES BASIN

CITY           SKY/WX    TMP DP  RH WIND       PRES   REMARKS
JOHN WAYNE AP  CLEAR     69  63  81 CALM      29.85S
LAGUNA BEACH     N/A     65  62  91 N1        29.85S
SANTA ANA        N/A     67  64  89 CALM      29.82F
HUNTINGTON BCH   N/A     66  64  93 CALM      29.84F
LOS ALAMITOS   CLEAR     65  63  92 CALM      29.82F
FULLERTON      CLEAR     68  67  96 CALM      29.85S
LONG BEACH     CLEAR     68  63  84 CALM      29.86S
L.A. AP        PTCLDY    67  59  75 CALM      29.86S

$$

THE INLAND EMPIRE

CITY           SKY/WX    TMP DP  RH WIND       PRES   REMARKS
CORONA         CLEAR     67  63  87 W3        29.86F
UPLAND AP      FAIR      73  63  68 N5        29.88F
CHINO          PTCLDY    67  62  84 SW3       29.87F
ONTARIO        PTCLDY    70  58  65 SW5       29.86F
SAN BERNARDINO PTCLDY    74  57  56 CALM      29.88S
RIVERSIDE AP   CLEAR     71  62  73 CALM      29.87S
MORENO VALLEY    N/A     71  63  76 CALM      29.82S
MARCH ARB      CLEAR     69  59  69 N3        29.89F
HORSETHIEF CYN   N/A     69  58  67 CALM      29.79F
LAKE ELSINORE    N/A     71  61  71 CALM      29.73F
HEMET AP       FAIR      72  59  64 CALM      29.90S
FRENCH VALLEY  CLEAR     70  59  68 E3        29.89S
TEMECULA         N/A     70  61  75 CALM        N/A

$$

SAN BERNARDINO AND RIVERSIDE COUNTY MOUNTAINS

CITY           SKY/WX    TMP DP  RH WIND       PRES   REMARKS
BIG BEAR AP    MOCLDY    59  45  58 CALM      30.30R
BIG BEAR LAKE    N/A     63  49  60 CALM      29.77S
WRIGHTWOOD       N/A     70  48  45 CALM      29.59R
ANGELUS OAKS     N/A     69  52  53 CALM      29.67S
IDYLLWILD        N/A     66  52  59 S1        29.65F

$$

SOUTHERN DESERT INCLUDING THE COACHELLA VALLEY

CITY           SKY/WX    TMP DP  RH WIND       PRES   REMARKS
PALM SPRINGS   PTCLDY    91  53  27 N5        29.80S
THOUSAND PALMS   N/A     91  56  30 CALM      29.71S
INDIO            N/A     93  60  33 SW1       29.74S
THERMAL        PTCLDY    85  69  58 W7        29.73S
BORREGO AP     CLEAR     88  63  42 VRB3      29.77R
OCOTILLO WELLS   N/A     92  68  45 CALM      29.70R HX  96
CANEBRAKE        N/A     89  51  27 CALM      29.66S
BLYTHE         PTCLDY    94  62  34 SE6       29.77S
IMPERIAL AP    CLEAR     89  74  60 SE8       29.72R HX  98
EL CENTRO NAS  CLEAR     88  70  55 SE6       29.73S

$$

UPPER DESERT

CITY           SKY/WX    TMP DP  RH WIND       PRES   REMARKS
VICTORVILLE AP PTCLDY    75  37  25 S7        29.98S
APPLE VALLEY     N/A     69  55  60 CALM      29.80F
PALMDALE       CLEAR     80  36  20 SW10      29.93F
LANCASTER      CLEAR     83  36  18 W9        29.91F
EDWARDS AFB    CLEAR     79  37  22 SW7       29.89R
DAGGETT        MOCLDY    87  43  21 W5        29.88R
29 PALMS N     PTCLDY    90  56  31 NE5       29.95
29 PALMS JTNP    N/A     90  58  34 CALM      29.66R
NEEDLES        PTCLDY    98  62  30 S8        29.80F HX  99

$$

REGIONAL REPORTS

CITY           SKY/WX    TMP DP  RH WIND       PRES   REMARKS
SANTA BARBARA  CLEAR     61  59  93 E5        29.86S
LAS VEGAS NV   CLOUDY    95  58  28 E5        29.88S
PHOENIX AZ     PTCLDY    88  64  44 E6        29.84S
TIJUANA        CLEAR     64  61  88 CALM      29.88
ENSENADA NW      N/A     65  32  29 W1        29.83R

$$

OFFSHORE ISLANDS

CITY           SKY/WX    TMP DP  RH WIND       PRES   REMARKS
CATALINA ARPT  CLEAR     68  49  50 SE3       29.91S
SAN NICOLAS IS CLOUDY    57  32  38 NW13      29.86S FOG

$$

MARINE AND OFFSHORE BUOY REPORTS

STATION/POSITION SKY/WX   TEMP    WIND        PRES    VSBY  SWELL
                          AIR SEA DIR/SP/G                  HT/PER/DIR
                          (F)     (DEG/KT/KT) (MB)    (MI)  (FT/S/D)
TANNER BANKS               60 63  300/ 16/ 19 1011.3F         7/330/ 9
S CLEMENTE BASIN           65 69  290/  8/ 10 1010.0F         5/290/ 9
SAN NICOLAS IS.            58 60                N/A           2/210/14
SO. S. ROSA ISLA           57 61  320/ 19/ 23 1010.7F         3/300/ 9
W. S. BARBARA CH           55 58  320/ 17/ 21 1010.8F         5/310/ 8
M. S. BARBARA CH           59 63  220/ 10/ 12 1010.2S         3/260/ 9
S. MONICA BASIN               70  350/  8/ 10 1011.4F         3/270/ 8
S PEDRO CHANNEL               68                N/A           2/170/13
OCEANSIDE OFFSHR              71                N/A           2/190/13
TORREY PINES OTR              71                N/A           2/200/14
SAN DIEGO BAY                 71              1010.5
IMPERIAL BEACH                65                N/A           2/230/14
POINT LOMA SOUTH                                N/A           2/200/14

$$